Starlink 32558

operational
NORAD ID: 62169 Int'l Des: 2024-225 Owner: SPXS Country: US Constellation: starlink
LEOCIRCULAR

Über Starlink 32558

Beschreibung wird geladen...

Live-Position

3D-Globus wird geladen...

Nächste Überflüge

Höhenverlauf

Altitude vs Time

uPlot chart will show altitude changes over time

Zweizeiliger Elementsatz

1 62169U 24225G 25257.58335648 -.00050241 00000-0 -42304-2 0 9991
2 62169 70.0007 248.5300 0003121 273.0137 122.0289 14.98354035 5722
Epoch: 14. Sept. 2025 • Age: 21 hours

Aktueller Status

Höhe 581.2 km
Geschwindigkeit 7.57 km/s
Subsatellitenpunkt 49.01°N, 121.56°W
Startdatum 30. Nov. 2024
Alter 0.7 years
Typ internet

Technische Details

Klassifizierung Payload
Masse 730.00 kg
Trockenmasse 700.00 kg
Gesamtmasse 730.00 kg
Länge 0.30 m
Durchmesser 4.10 m
Spannweite 29.00 m
Form Box + pan
Hersteller SPXS
Bus-Typ Starlink V2M
Phasenstatus In Orbit
Besitzer/Staat SPXS/US

Große Konstellationen

Loading constellations...